TimeEDT,TemperatureF,Dew PointF,Humidity,Sea Level PressureIn,VisibilityMPH,Wind Direction,Wind SpeedMPH,Gust SpeedMPH,PrecipitationIn,Events,Conditions,WindDirDegrees,DateUTC
12:54 AM,73.0,69.1,87,30.12,9.0,SW,5.8,-,N/A,,Clear,230,2013-08-27 04:54:00
1:54 AM,71.1,68.0,90,30.11,8.0,SW,6.9,-,N/A,,Clear,220,2013-08-27 05:54:00
2:54 AM,71.1,68.0,90,30.10,7.0,SW,5.8,-,N/A,,Clear,230,2013-08-27 06:54:00
3:54 AM,70.0,68.0,93,30.09,7.0,SW,5.8,-,N/A,,Clear,220,2013-08-27 07:54:00
4:54 AM,70.0,66.9,90,30.09,5.0,SW,5.8,-,N/A,,Clear,220,2013-08-27 08:54:00
5:54 AM,70.0,66.9,90,30.10,5.0,SW,5.8,-,N/A,,Clear,220,2013-08-27 09:54:00
6:54 AM,70.0,68.0,93,30.10,3.0,SSW,5.8,-,N/A,,Scattered Clouds,210,2013-08-27 10:54:00
7:54 AM,70.0,68.0,93,30.11,3.0,SSW,5.8,-,N/A,,Partly Cloudy,210,2013-08-27 11:54:00
8:54 AM,73.0,70.0,90,30.12,5.0,SW,3.5,-,N/A,,Mostly Cloudy,230,2013-08-27 12:54:00
9:54 AM,77.0,71.1,82,30.10,7.0,WSW,9.2,-,N/A,,Clear,240,2013-08-27 13:54:00
10:54 AM,81.0,71.1,72,30.10,9.0,West,9.2,-,N/A,,Clear,260,2013-08-27 14:54:00
11:54 AM,82.9,72.0,69,30.10,10.0,WSW,8.1,-,N/A,,Scattered Clouds,250,2013-08-27 15:54:00
12:54 PM,86.0,73.0,65,30.09,10.0,Variable,6.9,-,N/A,,Partly Cloudy,0,2013-08-27 16:54:00
1:54 PM,86.0,72.0,63,30.06,10.0,WSW,11.5,-,N/A,,Scattered Clouds,250,2013-08-27 17:54:00
2:54 PM,88.0,72.0,59,30.04,10.0,WSW,8.1,-,N/A,,Partly Cloudy,250,2013-08-27 18:54:00
3:54 PM,87.1,72.0,61,30.02,10.0,WSW,9.2,-,N/A,,Mostly Cloudy,250,2013-08-27 19:54:00
4:54 PM,87.1,72.0,61,30.01,10.0,WSW,11.5,-,N/A,,Scattered Clouds,240,2013-08-27 20:54:00
5:54 PM,86.0,73.0,65,30.00,10.0,SW,11.5,-,N/A,,Mostly Cloudy,220,2013-08-27 21:54:00
6:54 PM,84.9,73.0,67,30.00,10.0,SW,8.1,-,0.00,,Partly Cloudy,230,2013-08-27 22:54:00
7:54 PM,82.0,72.0,71,30.01,10.0,SW,8.1,-,N/A,,Clear,230,2013-08-27 23:54:00
8:54 PM,79.0,72.0,79,30.02,10.0,SW,6.9,-,N/A,,Scattered Clouds,230,2013-08-28 00:54:00
9:54 PM,78.1,73.0,84,30.02,8.0,SW,6.9,-,N/A,,Scattered Clouds,220,2013-08-28 01:54:00
10:54 PM,77.0,72.0,84,30.03,8.0,WSW,6.9,-,N/A,,Clear,240,2013-08-28 02:54:00
11:54 PM,77.0,73.0,88,30.03,7.0,SW,8.1,-,N/A,,Clear,230,2013-08-28 03:54:00